Total_Precipitation_Accumulation
0.00 0.00 0.00 0.01 0.04 0.01 0.05 0.02 0.01 0.00 0.00 0.00 0.00 0.00 0.00 0.00 0.01 0.02 0.00 0.00 0.00 0.00 0.00 0.02 0.03 0.02 0.01 0.02 0.02 0.00 0.00 0.00 0.00 0.00 0.00 0.00 0.01 0.01 0.02 0.01 0.00 0.01 0.02 0.03 0.03 0.01 0.01 0.01 0.01
0.00 0.00 0.00 0.01 0.13 0.06 0.21 0.07 0.00 0.00 0.03 0.02 0.00 0.02 0.01 0.00 0.00 0.00 0.00 0.00 0.00 0.00 0.00 0.01 0.02 0.01 0.00 0.01 0.01 0.00 0.00 0.00 0.00 0.00 0.01 0.00 0.00 0.02 0.02 0.00 0.00 0.00 0.02 0.02 0.05 0.02 0.01 0.01 0.01
0.00 0.00 0.00 0.00 0.00 0.14 0.23 0.07 0.02 0.03 0.04 0.01 0.00 0.03 0.00 0.00 0.00 0.00 0.00 0.00 0.00 0.00 0.00 0.01 0.04 0.01 0.01 0.00 0.00 0.00 0.00 0.00 0.00 0.00 0.00 0.00 0.00 0.00 0.00 0.02 0.01 0.01 0.01 0.01 0.03 0.04 0.01 0.01 0.03
0.00 0.00 0.00 0.01 0.00 0.01 0.09 0.06 0.01 0.03 0.04 0.02 0.00 0.00 0.00 0.00 0.00 0.00 0.00 0.00 0.00 0.00 0.00 0.01 0.02 0.00 0.00 0.00 0.00 0.00 0.00 0.00 0.01 0.00 0.00 0.00 0.00 0.01 0.01 0.00 0.00 0.00 0.02 0.01 0.00 0.01 0.01 0.02 0.01
0.00 0.00 0.00 0.00 0.00 0.00 0.02 0.01 0.00 0.02 0.02 0.00 0.00 0.00 0.00 0.01 0.00 0.00 0.00 0.00 0.00 0.00 0.00 0.00 0.01 0.01 0.00 0.00 0.00 0.00 0.00 0.00 0.00 0.00 0.00 0.00 0.00 0.00 0.00 0.00 0.01 0.00 0.01 0.01 0.00 0.01 0.02 0.01 0.00
0.00 0.00 0.00 0.00 0.00 0.00 0.00 0.00 0.00 0.03 0.01 0.01 0.00 0.00 0.01 0.01 0.00 0.00 0.00 0.00 0.00 0.00 0.00 0.00 0.01 0.01 0.00 0.00 0.00 0.00 0.00 0.00 0.00 0.00 0.00 0.00 0.00 0.00 0.00 0.01 0.00 0.00 0.03 0.07 0.05 0.02 0.01 0.00 0.00
0.00 0.00 0.00 0.00 0.00 0.00 0.00 0.00 0.01 0.02 0.00 0.00 0.00 0.00 0.00 0.01 0.00 0.00 0.00 0.00 0.00 0.00 0.00 0.00 0.00 0.00 0.00 0.00 0.00 0.00 0.00 0.00 0.00 0.00 0.00 0.00 0.00 0.00 0.00 0.00 0.00 0.00 0.00 0.01 0.07 0.09 0.05 0.00 0.00
0.00 0.00 0.00 0.00 0.00 0.00 0.00 0.00 0.00 0.01 0.00 0.00 0.00 0.00 0.00 0.00 0.00 0.00 0.00 0.00 0.00 0.00 0.00 0.00 0.00 0.00 0.00 0.00 0.01 0.00 0.00 0.00 0.00 0.01 0.03 0.03 0.02 0.03 0.00 0.00 0.00 0.01 0.02 0.05 0.02 0.00 0.02 0.01 0.00
0.00 0.00 0.00 0.00 0.00 0.00 0.00 0.00 0.00 0.01 0.00 0.00 0.00 0.00 0.00 0.00 0.00 0.00 0.00 0.00 0.00 0.00 0.00 0.00 0.00 0.00 0.00 0.00 0.01 0.01 0.05 0.04 0.09 0.31 0.31 0.24 0.13 0.52 0.12 0.00 0.00 0.00 0.04 0.09 0.10 0.05 0.00 0.01 0.01
0.00 0.00 0.00 0.00 0.00 0.00 0.00 0.00 0.00 0.00 0.00 0.00 0.00 0.00 0.00 0.00 0.00 0.00 0.00 0.00 0.00 0.00 0.00 0.00 0.00 0.00 0.00 0.00 0.04 0.11 0.23 0.48 0.58 0.29 0.24 0.08 0.03 0.03 0.02 0.00 0.00 0.00 0.00 0.02 0.12 0.12 0.04 0.00 0.00
0.00 0.00 0.00 0.00 0.00 0.00 0.00 0.00 0.00 0.00 0.00 0.00 0.00 0.00 0.00 0.00 0.00 0.00 0.00 0.00 0.00 0.00 0.00 0.00 0.00 0.00 0.01 0.01 0.10 0.23 0.50 0.54 0.28 0.12 0.08 0.02 0.01 0.00 0.00 0.00 0.00 0.00 0.06 0.13 0.24 0.18 0.08 0.00 0.00
0.00 0.00 0.00 0.00 0.00 0.00 0.00 0.00 0.00 0.00 0.00 0.00 0.00 0.00 0.00 0.00 0.00 0.00 0.00 0.00 0.00 0.00 0.00 0.00 0.00 0.01 0.02 0.01 0.18 0.42 0.41 0.25 0.23 0.13 0.09 0.08 0.04 0.02 0.00 0.00 0.00 0.00 0.00 0.00 0.12 0.08 0.16 0.04 0.00
0.00 0.00 0.00 0.00 0.00 0.00 0.00 0.00 0.00 0.00 0.00 0.00 0.00 0.00 0.00 0.00 0.00 0.00 0.00 0.00 0.00 0.00 0.00 0.00 0.00 0.00 0.00 0.08 0.28 0.37 0.34 0.12 0.05 0.01 0.00 0.01 0.03 0.06 0.01 0.00 0.00 0.00 0.00 0.02 0.13 0.11 0.14 0.15 0.00
0.00 0.00 0.00 0.00 0.00 0.00 0.00 0.00 0.00 0.00 0.00 0.00 0.00 0.00 0.00 0.00 0.00 0.00 0.00 0.00 0.00 0.00 0.00 0.00 0.00 0.00 0.01 0.06 0.30 0.31 0.31 0.21 0.04 0.00 0.00 0.00 0.00 0.00 0.00 0.00 0.00 0.00 0.01 0.02 0.06 0.13 0.06 0.10 0.00
0.00 0.00 0.00 0.00 0.00 0.00 0.08 0.02 0.00 0.00 0.00 0.00 0.00 0.00 0.00 0.00 0.00 0.00 0.00 0.00 0.01 0.00 0.00 0.00 0.00 0.00 0.00 0.10 0.21 0.19 0.25 0.15 0.11 0.06 0.00 0.02 0.01 0.02 0.00 0.00 0.00 0.01 0.03 0.05 0.00 0.07 0.25 0.33 0.05
0.00 0.00 0.11 0.00 0.00 0.00 0.31 0.04 0.00 0.00 0.00 0.00 0.00 0.00 0.00 0.00 0.00 0.00 0.00 0.00 0.01 0.01 0.00 0.00 0.00 0.00 0.00 0.00 0.05 0.10 0.18 0.30 0.20 0.15 0.03 0.04 0.02 0.00 0.01 0.00 0.00 0.02 0.05 0.05 0.06 0.11 0.27 0.40 0.20
0.00 0.13 0.01 0.00 0.00 0.00 0.02 0.00 0.00 0.00 0.00 0.00 0.00 0.00 0.00 0.00 0.00 0.00 0.00 0.00 0.00 0.02 0.04 0.00 0.00 0.00 0.00 0.00 0.16 0.24 0.21 0.13 0.18 0.19 0.09 0.02 0.01 0.02 0.00 0.00 0.01 0.06 0.17 0.31 0.10 0.08 0.25 0.34 0.25
0.00 0.01 0.00 0.00 0.00 0.00 0.00 0.00 0.00 0.00 0.00 0.00 0.00 0.00 0.00 0.00 0.00 0.00 0.00 0.00 0.00 0.03 0.05 0.01 0.00 0.00 0.00 0.00 0.09 0.16 0.13 0.15 0.20 0.20 0.05 0.05 0.02 0.06 0.05 0.06 0.08 0.19 0.31 0.42 0.21 0.35 0.17 0.29 0.19
0.00 0.00 0.00 0.00 0.00 0.00 0.00 0.00 0.00 0.00 0.00 0.00 0.00 0.00 0.00 0.00 0.00 0.00 0.00 0.00 0.01 0.00 0.01 0.00 0.00 0.00 0.00 0.01 0.07 0.17 0.22 0.26 0.21 0.12 0.02 0.01 0.01 0.09 0.16 0.16 0.22 0.38 0.32 0.37 0.25 0.29 0.33 0.17 0.17
0.00 0.00 0.00 0.00 0.00 0.00 0.00 0.00 0.00 0.00 0.00 0.00 0.00 0.00 0.00 0.00 0.00 0.00 0.00 0.00 0.00 0.00 0.00 0.00 0.00 0.00 0.00 0.01 0.01 0.04 0.24 0.34 0.17 0.06 0.06 0.02 0.00 0.01 0.13 0.19 0.32 0.47 0.31 0.26 0.26 0.48 0.46 0.29 0.24
0.00 0.00 0.01 0.00 0.00 0.00 0.00 0.00 0.00 0.00 0.00 0.00 0.00 0.00 0.00 0.00 0.00 0.00 0.00 0.00 0.00 0.00 0.00 0.00 0.00 0.00 0.00 0.00 0.01 0.01 0.06 0.33 0.47 0.40 0.21 0.06 0.02 0.04 0.10 0.45 0.91 0.49 0.31 0.26 0.35 0.48 0.43 0.36 0.43
0.00 0.00 0.00 0.00 0.00 0.07 0.01 0.04 0.00 0.00 0.00 0.00 0.00 0.00 0.00 0.00 0.00 0.00 0.01 0.02 0.00 0.00 0.01 0.02 0.01 0.00 0.00 0.00 0.00 0.09 0.22 0.35 0.25 0.13 0.08 0.07 0.04 0.11 0.18 0.46 0.24 0.33 0.55 0.32 0.10 0.20 0.38 0.48 0.49
0.00 0.00 0.00 0.00 0.00 0.00 0.01 0.00 0.00 0.00 0.00 0.00 0.00 0.00 0.00 0.00 0.00 0.00 0.00 0.02 0.05 0.03 0.05 0.06 0.05 0.01 0.00 0.00 0.00 0.06 0.04 0.06 0.07 0.03 0.22 0.13 0.07 0.08 0.11 0.14 0.03 0.00 0.03 0.10 0.03 0.18 0.22 0.29 0.47
0.00 0.00 0.00 0.00 0.00 0.00 0.00 0.00 0.00 0.00 0.00 0.00 0.00 0.00 0.01 0.00 0.00 0.00 0.00 0.02 0.04 0.04 0.07 0.08 0.08 0.04 0.03 0.00 0.00 0.00 0.03 0.12 0.12 0.23 0.21 0.19 0.15 0.19 0.14 0.13 0.03 0.00 0.00 0.01 0.07 0.16 0.12 0.18 0.33
0.00 0.00 0.00 0.00 0.00 0.00 0.00 0.00 0.00 0.00 0.00 0.00 0.00 0.00 0.00 0.00 0.00 0.00 0.00 0.01 0.05 0.04 0.03 0.03 0.09 0.07 0.06 0.04 0.02 0.00 0.00 0.01 0.06 0.14 0.11 0.28 0.35 0.16 0.08 0.16 0.09 0.04 0.00 0.00 0.00 0.02 0.09 0.11 0.20
0.00 0.00 0.00 0.01 0.00 0.01 0.00 0.00 0.00 0.00 0.00 0.00 0.00 0.00 0.00 0.01 0.06 0.01 0.01 0.01 0.05 0.08 0.05 0.00 0.04 0.11 0.17 0.20 0.13 0.06 0.03 0.04 0.05 0.05 0.12 0.29 0.39 0.16 0.05 0.17 0.12 0.04 0.01 0.00 0.00 0.00 0.02 0.05 0.09
0.00 0.00 0.00 0.00 0.01 0.00 0.00 0.00 0.00 0.00 0.00 0.00 0.00 0.00 0.00 0.02 0.07 0.01 0.02 0.01 0.01 0.03 0.01 0.00 0.00 0.01 0.15 0.35 0.20 0.10 0.05 0.16 0.17 0.12 0.10 0.21 0.29 0.19 0.15 0.27 0.17 0.08 0.07 0.03 0.01 0.00 0.01 0.03 0.03
0.00 0.00 0.00 0.00 0.00 0.00 0.00 0.00 0.00 0.00 0.00 0.00 0.00 0.00 0.00 0.00 0.04 0.04 0.02 0.00 0.01 0.01 0.00 0.00 0.07 0.03 0.37 0.47 0.48 0.31 0.22 0.27 0.25 0.23 0.24 0.23 0.65 0.92 0.51 0.24 0.16 0.10 0.11 0.10 0.01 0.00 0.01 0.00 0.00
0.00 0.00 0.00 0.00 0.00 0.00 0.00 0.00 0.00 0.00 0.00 0.00 0.00 0.00 0.00 0.01 0.02 0.03 0.01 0.00 0.00 0.01 0.00 0.00 0.05 0.21 0.41 0.75 0.86 0.89 1.03 0.78 0.40 0.19 0.16 0.24 0.59 0.92 1.09 0.41 0.30 0.19 0.07 0.04 0.02 0.00 0.01 0.00 0.00
0.00 0.00 0.00 0.00 0.00 0.00 0.00 0.00 0.00 0.00 0.00 0.00 0.00 0.00 0.00 0.00 0.00 0.00 0.00 0.00 0.00 0.00 0.01 0.02 0.03 0.10 0.37 0.65 1.01 1.41 1.25 1.46 1.00 0.46 0.44 0.77 0.69 0.58 1.23 1.14 0.47 0.18 0.08 0.06 0.04 0.01 0.00 0.00 0.00